Location: Wanzleben
(52.0609°N, 11.4408°E)
Time: 10:02:11
(UTC+00:00)

Cosmos 2263 Rocket - Visible Passes

Search period start: 17 January 2021 00:00
Search period end: 27 January 2021 00:00
Orbit: 823 x 849 km, 71.0° (Epoch: 17 January)

Date Brightness Start Highest point End Pass type
(mag) Time Alt. Az. Time Alt. Az. Time Alt. Az.
17 Jan 3.0 16:25:06 10° SSE 16:30:02 31° ESE 16:34:57 10° NE visible
17 Jan 2.7 18:08:06 10° SW 18:13:41 57° NW 18:17:05 24° NNE visible
17 Jan 4.4 19:54:58 10° WNW 19:58:48 19° NNW 19:58:48 19° NNW visible
18 Jan 3.2 16:08:29 10° SSE 16:13:17 29° ESE 16:18:07 10° NE visible
18 Jan 2.6 17:51:16 10° SW 17:56:53 61° NW 18:01:05 18° NNE visible
18 Jan 4.3 19:38:00 10° WNW 19:42:01 19° NNW 19:42:48 19° NNW visible
19 Jan 2.6 17:34:26 10° SW 17:40:06 65° NW 17:45:02 14° NNE visible
19 Jan 4.2 19:21:02 10° WNW 19:25:10 20° NNW 19:26:44 18° N visible
20 Jan 2.5 17:17:38 10° SW 17:23:18 69° NW 17:28:56 10° NNE visible
20 Jan 4.2 19:04:05 10° W 19:08:18 21° NNW 19:10:38 17° N visible
21 Jan 2.4 17:00:50 10° SW 17:06:31 73° WNW 17:12:12 10° NNE visible
21 Jan 4.2 18:47:08 10° W 18:51:27 22° NW 18:54:29 15° N visible
21 Jan 5.0 20:35:58 10° NNW 20:36:11 10° NNW 20:36:11 10° NNW visible
22 Jan 2.4 16:44:02 10° SW 16:49:44 78° WNW 16:55:26 10° NNE visible
22 Jan 4.2 18:30:10 10° W 18:34:35 23° NW 18:38:17 13° N visible
22 Jan 4.9 20:18:59 10° NNW 20:20:00 11° NNW 20:20:00 11° NNW visible
23 Jan 2.3 16:27:15 10° SSW 16:32:57 83° WNW 16:38:39 10° NNE visible
23 Jan 4.1 18:13:14 10° W 18:17:45 24° NW 18:22:04 11° NNE visible
23 Jan 4.8 20:02:00 10° NNW 20:03:46 12° N 20:03:46 12° N visible
24 Jan 4.0 17:56:18 10° W 18:00:54 25° NW 18:05:30 10° NNE visible
24 Jan 4.7 19:45:01 10° NNW 19:47:02 12° N 19:47:32 12° N visible
25 Jan 4.0 17:39:22 10° W 17:44:03 26° NW 17:48:45 10° NNE visible
25 Jan 4.6 19:28:01 10° NW 19:30:08 12° NNW 19:31:15 11° N visible
26 Jan 3.9 17:22:28 10° W 17:27:13 27° NW 17:31:59 10° NNE visible
26 Jan 4.6 19:11:00 10° NW 19:13:15 12° NNW 19:14:58 11° N visible
